Lid_Strength_Index
4 4 3 3 3 2 2 2 2 2 2 2 1 1 1 1 1 1 1 1 1 1 1 1 0 0 0 0 0 0 0 0 0
5 4 4 4 3 2 2 2 1 1 2 2 1 1 1 1 1 1 1 1 1 1 -0 -0 0 0 0 0 0 0 0 1 1
6 6 5 4 3 3 2 2 1 1 1 1 1 1 1 1 1 1 1 0 1 1 0 -0 -1 -0 0 0 0 0 0 1 0
5 5 5 3 3 2 2 2 2 1 1 1 1 1 1 1 1 1 1 1 1 0 0 -0 0 -0 0 0 0 0 1 1 1
4 4 4 3 3 3 2 2 2 2 1 1 1 1 0 1 1 1 1 1 0 -0 0 -1 -0 0 1 0 0 0 1 1 1
4 4 4 4 3 3 3 3 2 2 1 1 1 1 1 1 1 1 1 0 0 0 0 -0 -0 0 1 1 1 1 1 1 1
4 4 4 4 4 4 3 2 2 1 1 1 1 1 1 1 1 1 0 0 0 0 0 0 0 0 0 1 1 0 1 1 1
4 4 4 4 4 3 2 2 1 1 1 0 1 1 2 2 1 0 -0 0 0 0 0 0 0 1 1 1 1 1 1 1 1
4 4 4 4 3 3 2 2 2 1 1 0 -0 1 1 0 -1 -1 -0 -0 -0 1 1 0 0 1 1 1 1 2 3 1 1
4 4 4 3 3 3 2 2 1 1 1 -0 0 1 1 1 1 1 1 0 0 1 1 1 1 1 1 1 2 2 2 3 1
4 4 3 3 3 2 2 1 1 1 1 0 0 1 1 1 1 1 1 1 1 1 1 1 1 1 1 1 2 4 2 2 1
3 3 3 2 2 2 1 1 1 1 1 1 1 2 1 1 1 2 1 1 1 1 1 1 1 1 1 1 1 6 5 3 1
3 2 2 2 2 2 2 1 1 1 2 2 2 2 1 1 1 1 2 1 1 1 1 1 1 1 1 2 1 4 7 4 1
2 2 2 2 2 2 2 1 1 2 2 2 1 1 1 1 1 1 1 1 1 1 1 1 2 2 1 1 1 1 7 7 1
3 3 2 2 2 2 1 1 1 2 2 1 1 1 1 1 1 1 1 1 1 1 2 2 2 2 2 1 1 2 7 7 6
3 3 2 2 2 2 2 2 1 2 2 1 1 2 2 1 1 1 1 2 2 2 2 2 2 3 3 2 1 1 4 8 7
4 3 3 2 2 3 3 2 2 2 1 1 2 2 2 2 2 2 1 1 2 2 2 2 2 3 3 2 2 1 1 2 5
3 3 3 3 3 3 3 2 2 1 1 1 2 2 2 2 2 2 2 2 2 2 1 2 2 2 2 2 3 2 6 5 1
3 3 3 3 3 3 3 2 2 2 1 1 2 2 2 2 2 2 2 2 2 4 5 5 6 8 6 1 4 8 10 12 11
3 3 3 3 3 3 2 2 2 2 1 1 2 3 3 2 3 2 2 2 3 3 2 7 7 8 8 9 6 9 11 11 10